Wind_Speed
64 66 64 64 63 61 59 57 56 55 52 50 49 47 46 43 41 40 36 34 33 32 31 31 27 25 24 22 21 19 17 17 20 19 18 16 13 15 15 13 12 12 12 13 12
65 66 68 65 66 63 62 60 59 58 56 54 52 50 49 48 46 44 38 39 38 36 35 34 31 29 28 27 26 24 19 20 23 22 21 18 16 15 16 17 16 15 15 14 14
64 68 67 69 68 66 65 64 62 60 60 58 56 54 53 52 51 45 45 45 42 41 39 37 35 33 33 32 31 29 22 25 26 28 24 24 22 19 17 18 19 18 18 17 16
67 66 63 67 67 67 67 65 65 64 63 62 60 58 56 55 55 51 50 47 45 44 42 40 38 39 37 37 37 35 29 29 29 31 30 28 27 25 20 21 23 22 20 22 20
79 69 66 66 64 67 66 68 66 66 66 65 64 63 61 60 57 56 51 50 49 47 46 46 45 45 43 42 43 41 35 34 34 36 35 34 31 31 23 27 26 24 23 22 22
79 82 72 75 66 69 67 68 67 64 67 67 67 67 65 63 59 62 56 54 55 53 52 51 51 49 49 47 46 45 42 40 38 39 39 40 37 36 24 31 31 31 27 27 26
78 79 78 79 80 70 67 69 67 68 68 66 67 67 67 63 62 64 60 57 56 57 55 55 54 54 53 50 51 50 48 45 43 43 43 43 43 38 33 35 35 36 35 31 29
78 76 76 80 78 76 71 70 71 68 69 70 68 68 65 63 64 63 64 61 60 59 59 58 58 57 56 55 53 52 52 52 48 46 45 46 45 40 41 41 39 39 39 37 34
82 80 78 79 77 77 83 75 69 67 68 70 70 69 68 66 67 65 65 64 62 62 61 60 60 59 59 59 58 57 55 54 53 49 49 50 51 43 43 46 44 40 40 41 41
84 84 81 77 79 77 74 78 77 74 74 73 75 78 77 73 71 70 67 69 67 64 63 62 62 62 62 63 61 57 55 56 57 54 56 55 54 51 48 49 48 45 44 45 46
80 83 83 79 77 73 73 76 69 60 81 85 79 77 76 73 70 71 72 70 70 68 67 67 66 64 61 61 60 61 60 60 60 59 59 59 57 55 54 53 52 50 51 50 50
83 81 80 77 77 76 76 75 74 74 70 71 76 84 79 76 70 68 70 70 70 68 66 66 67 64 64 62 63 64 63 64 63 62 61 62 61 59 58 57 57 55 54 54 53
89 85 82 75 73 77 79 74 72 73 72 74 74 72 76 73 68 67 68 68 69 68 66 67 66 63 64 63 63 64 64 64 63 64 66 67 67 63 59 62 61 60 60 58 59
95 93 87 81 78 75 75 76 75 73 72 77 78 74 72 72 73 70 68 68 69 66 67 68 66 66 67 66 65 65 63 64 66 66 68 68 73 69 65 61 61 64 64 64 63
100 96 91 88 83 77 70 70 71 69 62 75 79 74 71 67 67 68 71 69 68 68 69 67 65 65 65 62 62 63 62 64 66 68 71 71 76 71 68 65 63 63 67 66 66
100 99 92 91 84 77 71 66 65 65 70 72 81 79 77 74 72 66 65 67 69 67 69 69 69 69 68 64 64 64 68 69 70 69 73 72 71 74 71 70 69 64 63 61 59
93 95 97 89 83 81 77 70 67 73 69 63 77 80 77 75 76 70 65 66 67 67 71 69 70 68 66 68 69 67 65 65 67 68 74 70 67 74 72 72 70 62 53 49 51
71 80 90 75 76 74 71 69 71 72 73 72 73 72 71 74 72 70 67 66 65 66 63 62 64 66 63 64 60 54 52 58 63 64 61 57 66 72 69 68 59 54 55 55 53
61 77 84 63 72 72 66 73 77 76 70 63 64 69 66 66 69 71 70 72 70 67 64 63 65 63 60 49 41 45 49 46 48 51 55 60 63 62 57 51 46 48 50 54 55
61 68 68 60 68 68 67 73 70 72 63 64 63 66 66 66 67 70 67 66 65 64 60 60 60 56 50 49 50 49 41 42 44 48 50 52 51 50 35 31 35 43 47 51 58
60 60 70 61 63 61 67 66 71 64 68 63 59 56 56 52 52 52 53 55 58 55 53 57 57 56 51 54 50 45 42 44 46 48 50 51 49 36 35 39 41 42 47 50 55
62 50 58 68 72 69 62 67 51 76 70 64 65 63 59 49 52 44 43 37 38 44 49 47 49 48 48 45 46 47 48 45 46 44 44 45 45 29 35 38 44 49 51 50 50
55 40 64 54 69 71 73 68 61 54 56 66 63 62 60 57 48 44 50 47 40 36 32 47 42 40 42 45 48 50 46 45 41 40 42 45 39 30 34 37 42 46 49 54 58
45 42 54 66 59 69 60 53 58 56 65 56 56 57 55 57 57 46 44 49 50 45 36 38 45 48 41 37 40 42 41 40 39 41 41 41 36 27 38 41 42 42 46 53 57
38 51 42 57 65 47 67 60 38 55 51 55 56 60 58 57 50 47 45 50 53 39 33 30 40 42 38 40 43 42 41 41 42 41 45 38 39 31 40 40 38 40 45 50 54
36 38 34 38 48 53 55 59 53 40 47 53 55 57 56 58 59 48 30 34 39 46 33 27 29 37 37 39 43 44 42 42 45 45 44 40 35 40 40 42 42 41 42 44 48
34 29 29 41 36 43 49 49 42 49 49 43 50 56 59 54 52 57 57 53 53 54 49 40 32 34 36 36 36 40 38 43 43 40 39 39 34 40 41 40 41 43 43 43 46
Wind_Direction
235 235 232 230 227 228 227 227 228 229 228 227 228 227 227 228 229 231 230 230 229 231 233 236 237 238 242 242 242 243 246 255 258 264 269 273 281 288 287 288 295 299 300 294 294
233 235 235 234 233 229 229 229 230 230 230 230 229 230 230 230 231 234 230 234 234 233 236 238 240 242 246 250 251 252 252 256 264 265 271 273 275 276 287 294 295 298 300 300 306
233 234 234 234 235 233 231 232 231 232 231 231 232 231 232 231 232 230 233 236 236 239 240 244 247 249 252 255 257 256 252 254 262 267 267 273 274 279 286 293 292 293 296 299 300
230 233 232 235 233 234 233 233 234 233 234 233 232 233 234 234 235 233 235 236 238 242 246 247 249 252 253 255 257 258 255 257 261 265 269 269 271 273 278 282 287 294 297 299 302
230 232 231 234 234 235 233 236 235 235 234 236 236 234 234 235 237 237 236 238 240 241 243 246 246 249 251 253 256 259 258 259 260 265 268 268 270 272 281 284 285 287 290 291 294
230 230 234 233 235 236 235 233 235 235 236 235 237 237 235 236 237 240 234 236 239 240 242 244 247 248 250 253 256 259 257 257 258 262 266 270 272 272 282 276 279 283 281 284 290
236 228 231 232 230 234 235 235 234 235 237 236 236 237 236 237 239 242 241 239 240 243 244 246 247 249 250 251 253 259 261 261 261 262 265 269 271 277 270 272 275 276 278 282 286
233 234 235 233 228 229 233 237 236 236 235 237 237 237 236 237 239 240 243 242 242 242 244 245 247 248 250 251 253 256 258 260 262 262 264 268 271 272 273 272 273 275 280 283 284
233 231 232 235 233 228 229 233 235 235 235 237 238 238 235 238 239 241 244 245 244 244 244 246 247 249 250 252 253 254 256 260 264 266 267 265 269 266 266 270 273 274 277 280 281
234 232 231 232 238 232 233 233 229 234 234 233 237 236 235 238 240 241 244 246 247 245 246 246 248 249 250 251 254 259 262 261 262 262 262 264 269 269 267 270 273 273 274 274 275
232 234 233 230 231 233 236 234 232 229 236 235 235 235 236 239 240 243 243 247 248 247 247 248 248 249 253 255 256 257 258 259 262 263 264 265 267 269 272 270 271 272 273 274 277
231 233 233 231 230 231 231 232 238 242 242 242 239 236 234 236 239 241 242 243 246 248 250 250 251 253 254 256 258 259 261 262 264 266 267 267 266 268 269 272 274 275 275 274 273
231 231 232 230 229 230 232 233 235 237 239 240 241 240 237 238 238 241 243 243 245 247 249 251 252 253 254 255 256 258 260 263 266 267 267 267 266 267 267 271 273 276 277 277 275
226 229 230 231 229 229 231 232 232 235 238 237 237 239 238 238 240 242 244 244 245 246 248 250 251 252 253 255 259 260 263 264 265 266 267 265 265 266 268 269 272 275 274 273 274
223 225 228 229 229 229 231 231 231 232 232 235 235 236 237 239 240 240 242 242 244 246 248 251 253 255 256 257 258 259 259 260 261 263 264 266 267 267 269 270 271 270 272 272 273
220 221 222 226 228 225 226 227 228 225 228 229 233 232 233 236 237 235 236 239 240 241 244 246 247 248 252 252 254 255 257 259 259 260 261 268 267 271 276 277 274 271 270 272 274
216 218 219 221 224 225 222 222 221 223 222 229 233 234 236 236 237 236 237 240 243 245 247 249 251 253 254 255 256 257 258 261 263 264 270 269 270 271 269 270 271 274 277 276 273
215 213 213 220 219 218 217 214 219 222 223 226 233 233 235 236 236 237 240 242 243 244 245 247 248 252 256 260 263 261 260 261 264 266 270 266 266 270 268 268 273 274 273 270 266
204 198 200 196 220 215 212 213 220 222 225 226 229 234 233 234 235 238 241 243 243 246 249 252 253 254 256 255 252 256 255 262 261 260 262 262 264 266 271 275 275 271 264 261 262
199 190 187 201 215 216 213 218 217 224 222 223 225 229 231 233 236 236 235 237 241 243 244 248 250 250 250 247 247 250 251 250 253 257 259 264 266 272 279 275 259 259 258 256 255
184 186 191 196 198 199 213 213 210 217 223 219 219 222 229 231 236 238 243 243 242 242 244 246 245 245 242 244 247 250 251 254 255 255 260 266 269 277 273 266 263 257 257 256 255
173 197 201 201 209 212 221 215 212 222 223 224 225 228 230 234 233 232 230 230 233 236 238 244 245 246 249 246 244 244 245 245 250 259 263 267 267 271 264 261 261 258 254 254 255
186 176 189 196 193 198 206 213 218 217 215 222 223 226 227 226 228 228 231 229 223 222 242 237 238 241 243 242 239 241 244 248 254 258 260 265 270 270 265 259 259 259 259 257 260
186 176 186 191 196 199 218 207 213 213 221 220 221 220 223 223 222 231 234 225 225 238 239 231 234 240 241 248 249 247 245 249 256 256 258 265 271 262 260 261 262 260 259 259 257
181 192 195 182 199 199 201 210 221 209 221 217 217 218 222 223 218 219 220 218 222 213 222 230 231 232 234 241 246 247 244 246 251 255 256 263 265 264 262 261 263 263 261 260 262
177 181 196 199 201 219 219 222 228 229 223 230 216 218 221 221 215 214 222 221 220 212 225 246 251 229 234 241 243 246 246 249 249 249 258 262 264 264 266 265 271 270 266 264 265
185 184 194 199 198 199 208 214 221 222 228 231 226 226 216 221 225 224 231 236 235 237 241 250 237 230 230 237 242 243 243 251 257 262 265 264 265 262 263 265 268 273 274 272 271
Height
5709 5716 5723 5730 5736 5743 5748 5754 5759 5765 5770 5775 5780 5786 5791 5796 5802 5806 5812 5817 5820 5824 5828 5831 5836 5839 5842 5846 5850 5854 5857 5857 5857 5860 5862 5864 5867 5868 5869 5870 5870 5871 5872 5872 5873
5696 5703 5712 5718 5725 5731 5738 5744 5750 5756 5762 5767 5772 5778 5783 5789 5794 5800 5806 5809 5813 5816 5820 5825 5831 5834 5837 5840 5844 5848 5853 5853 5852 5855 5858 5861 5863 5865 5866 5867 5868 5868 5869 5870 5870
5683 5691 5698 5706 5714 5720 5727 5735 5740 5747 5753 5758 5763 5768 5774 5780 5786 5794 5795 5799 5805 5809 5814 5818 5823 5828 5830 5833 5838 5842 5848 5847 5848 5849 5853 5856 5859 5861 5863 5863 5865 5866 5866 5866 5866
5671 5679 5684 5693 5701 5708 5716 5723 5730 5736 5743 5749 5753 5758 5764 5771 5778 5784 5789 5793 5798 5802 5808 5812 5816 5820 5823 5825 5828 5833 5840 5842 5844 5844 5846 5850 5853 5856 5859 5859 5861 5862 5863 5862 5863
5656 5665 5672 5681 5687 5696 5702 5711 5718 5725 5731 5738 5743 5747 5754 5763 5771 5776 5783 5786 5791 5796 5800 5803 5807 5810 5815 5819 5821 5824 5833 5836 5839 5838 5839 5843 5847 5849 5857 5854 5856 5858 5859 5858 5858
5639 5650 5657 5666 5675 5684 5691 5698 5706 5712 5720 5725 5730 5736 5744 5754 5761 5762 5774 5776 5780 5785 5789 5794 5798 5802 5807 5811 5814 5817 5823 5828 5832 5832 5833 5835 5841 5843 5854 5848 5850 5850 5853 5854 5854
5622 5632 5642 5651 5662 5671 5678 5686 5692 5699 5706 5712 5718 5727 5735 5746 5749 5752 5762 5769 5773 5777 5782 5785 5788 5793 5798 5802 5805 5807 5811 5816 5821 5824 5825 5829 5833 5838 5844 5842 5844 5843 5845 5849 5850
5608 5618 5627 5636 5646 5656 5666 5673 5679 5684 5691 5697 5706 5716 5726 5732 5737 5745 5748 5757 5763 5767 5771 5775 5778 5783 5788 5792 5796 5799 5801 5804 5812 5816 5820 5821 5826 5831 5832 5833 5836 5837 5838 5840 5843
5592 5602 5614 5621 5632 5641 5652 5660 5664 5668 5673 5682 5693 5705 5715 5723 5728 5734 5737 5744 5751 5756 5761 5764 5769 5775 5779 5782 5786 5790 5794 5797 5801 5807 5809 5813 5813 5823 5824 5824 5827 5831 5832 5832 5833
5575 5586 5598 5610 5616 5626 5636 5642 5645 5648 5655 5669 5683 5694 5704 5713 5715 5721 5726 5730 5739 5744 5749 5754 5759 5765 5769 5771 5777 5783 5787 5789 5790 5794 5794 5800 5805 5809 5815 5816 5819 5823 5824 5823 5823
5560 5570 5582 5596 5604 5612 5616 5619 5626 5632 5645 5662 5676 5683 5688 5696 5703 5710 5716 5720 5728 5733 5739 5743 5748 5757 5761 5764 5767 5771 5774 5777 5779 5780 5782 5786 5793 5798 5801 5805 5809 5813 5814 5815 5815
5543 5554 5566 5579 5589 5595 5599 5607 5620 5633 5641 5648 5658 5665 5672 5679 5690 5696 5703 5710 5714 5721 5726 5734 5741 5748 5750 5754 5758 5761 5763 5764 5765 5766 5769 5774 5783 5786 5792 5795 5796 5799 5801 5802 5803
5526 5539 5550 5565 5574 5575 5589 5605 5614 5621 5626 5633 5639 5652 5661 5670 5678 5686 5692 5698 5704 5708 5715 5720 5732 5735 5738 5743 5745 5749 5752 5751 5754 5752 5755 5759 5770 5775 5782 5783 5784 5786 5787 5788 5787
5506 5518 5535 5548 5552 5566 5578 5592 5602 5608 5610 5612 5620 5633 5645 5654 5665 5673 5681 5686 5690 5700 5703 5708 5717 5721 5726 5733 5735 5740 5745 5741 5741 5739 5743 5748 5752 5760 5769 5778 5779 5776 5773 5771 5769
5483 5501 5517 5527 5544 5553 5579 5582 5591 5596 5590 5597 5607 5621 5631 5645 5658 5662 5668 5670 5680 5686 5691 5705 5709 5712 5718 5726 5723 5729 5730 5727 5726 5725 5726 5742 5732 5753 5758 5766 5770 5767 5759 5757 5756
5462 5483 5500 5509 5524 5552 5559 5570 5579 5575 5567 5582 5592 5606 5619 5635 5642 5647 5651 5656 5666 5669 5678 5688 5694 5695 5705 5708 5709 5714 5715 5714 5713 5712 5710 5733 5719 5741 5749 5750 5749 5748 5744 5743 5742
5442 5463 5479 5496 5513 5532 5545 5552 5552 5548 5562 5568 5583 5601 5614 5622 5629 5636 5643 5647 5655 5659 5668 5681 5683 5689 5695 5696 5696 5700 5702 5701 5699 5701 5705 5713 5706 5719 5737 5732 5730 5728 5731 5731 5727
5427 5443 5466 5483 5500 5513 5529 5533 5530 5540 5547 5562 5579 5590 5597 5610 5612 5625 5631 5637 5646 5649 5659 5663 5671 5676 5685 5686 5689 5689 5692 5690 5685 5688 5693 5695 5688 5705 5716 5718 5717 5718 5716 5715 5713
5414 5430 5451 5480 5486 5502 5510 5511 5516 5527 5541 5559 5571 5575 5585 5593 5604 5610 5617 5628 5637 5644 5651 5655 5659 5667 5671 5674 5675 5680 5676 5686 5677 5678 5673 5675 5681 5691 5703 5707 5705 5704 5703 5698 5699
5403 5423 5445 5465 5479 5490 5496 5503 5516 5524 5537 5547 5556 5566 5573 5586 5591 5596 5605 5618 5625 5632 5638 5643 5648 5654 5657 5661 5664 5665 5671 5670 5668 5665 5664 5666 5672 5681 5696 5694 5692 5688 5686 5686 5687
5403 5422 5444 5456 5470 5484 5478 5495 5510 5514 5530 5539 5547 5558 5571 5579 5587 5591 5597 5612 5619 5627 5631 5631 5634 5641 5643 5647 5657 5660 5660 5661 5658 5657 5656 5658 5663 5682 5682 5679 5680 5678 5673 5675 5673
5408 5424 5438 5448 5458 5469 5476 5488 5502 5508 5519 5530 5543 5553 5566 5575 5580 5586 5593 5605 5612 5617 5618 5624 5624 5629 5636 5642 5644 5645 5648 5648 5644 5652 5651 5651 5655 5671 5666 5667 5664 5660 5662 5662 5663
5407 5422 5435 5444 5451 5462 5471 5480 5493 5502 5510 5523 5534 5544 5556 5566 5571 5578 5588 5598 5602 5606 5611 5614 5616 5620 5624 5628 5629 5632 5640 5642 5641 5640 5642 5640 5651 5658 5657 5653 5650 5649 5650 5652 5651
5408 5419 5428 5438 5445 5462 5467 5476 5486 5497 5506 5517 5528 5537 5546 5554 5564 5573 5579 5587 5592 5598 5602 5600 5605 5608 5614 5622 5625 5627 5631 5632 5630 5628 5635 5633 5642 5654 5641 5641 5640 5640 5639 5638 5638
5407 5418 5425 5432 5446 5455 5465 5477 5483 5489 5500 5510 5518 5527 5538 5549 5558 5566 5570 5575 5582 5589 5590 5592 5597 5600 5606 5609 5611 5615 5618 5619 5618 5627 5619 5633 5629 5640 5630 5630 5630 5629 5627 5627 5627
5413 5421 5430 5442 5452 5458 5466 5472 5479 5488 5498 5504 5510 5523 5531 5538 5551 5564 5568 5571 5576 5580 5584 5585 5590 5592 5597 5600 5602 5604 5608 5610 5610 5613 5613 5618 5623 5619 5620 5618 5617 5617 5617 5617 5616
5418 5426 5432 5440 5447 5454 5463 5473 5480 5485 5492 5500 5511 5518 5522 5539 5548 5554 5556 5561 5565 5569 5574 5579 5583 5585 5589 5591 5591 5592 5601 5598 5602 5605 5606 5606 5613 5608 5608 5608 5607 5605 5605 5606 5605